segment_id,date_local,uptime,ped_lft,ped_rgt,ped_total,bike_lft,bike_rgt,bike_total,car_lft,car_rgt,car_total,heavy_lft,heavy_rgt,heavy_total,v85,car_speed0,car_speed10,car_speed20,car_speed30,car_speed40,car_speed50,car_speed60,car_speed70
100024661,2019-07-01 00:00,1.0,,,,61,50,111,,,,,,,
100024661,2019-07-01 01:00,1.0,,,,33,37,70,,,,,,,
100024661,2019-07-01 02:00,1.0,,,,16,10,26,,,,,,,
100024661,2019-07-01 03:00,1.0,,,,11,10,21,,,,,,,
100024661,2019-07-01 04:00,1.0,,,,13,14,27,,,,,,,
100024661,2019-07-01 05:00,1.0,,,,26,41,67,,,,,,,
100024661,2019-07-01 06:00,1.0,,,,68,145,213,,,,,,,
100024661,2019-07-01 07:00,1.0,,,,173,320,493,,,,,,,
100024661,2019-07-01 08:00,1.0,,,,476,855,1331,,,,,,,
100024661,2019-07-01 09:00,1.0,,,,491,727,1218,,,,,,,
100024661,2019-07-01 10:00,1.0,,,,231,291,522,,,,,,,
100024661,2019-07-01 11:00,1.0,,,,204,198,402,,,,,,,
100024661,2019-07-01 12:00,1.0,,,,199,199,398,,,,,,,
100024661,2019-07-01 13:00,1.0,,,,187,238,425,,,,,,,
100024661,2019-07-01 14:00,1.0,,,,257,238,495,,,,,,,
100024661,2019-07-01 15:00,1.0,,,,375,302,677,,,,,,,
100024661,2019-07-01 16:00,1.0,,,,487,326,813,,,,,,,
100024661,2019-07-01 17:00,1.0,,,,693,463,1156,,,,,,,
100024661,2019-07-01 18:00,1.0,,,,811,635,1446,,,,,,,
100024661,2019-07-01 19:00,1.0,,,,505,486,991,,,,,,,
100024661,2019-07-01 20:00,1.0,,,,272,296,568,,,,,,,
100024661,2019-07-01 21:00,1.0,,,,199,196,395,,,,,,,
100024661,2019-07-01 22:00,1.0,,,,149,149,298,,,,,,,
100024661,2019-07-01 23:00,1.0,,,,101,109,210,,,,,,,
100024661,2019-07-02 00:00,1.0,,,,38,64,102,,,,,,,
100024661,2019-07-02 01:00,1.0,,,,24,25,49,,,,,,,
100024661,2019-07-02 02:00,1.0,,,,14,15,29,,,,,,,
100024661,2019-07-02 03:00,1.0,,,,6,9,15,,,,,,,
100024661,2019-07-02 04:00,1.0,,,,4,11,15,,,,,,,
100024661,2019-07-02 05:00,1.0,,,,22,49,71,,,,,,,
100024661,2019-07-02 06:00,1.0,,,,71,150,221,,,,,,,
100024661,2019-07-02 07:00,1.0,,,,162,387,549,,,,,,,
100024661,2019-07-02 08:00,1.0,,,,535,892,1427,,,,,,,
100024661,2019-07-02 09:00,1.0,,,,558,785,1343,,,,,,,
100024661,2019-07-02 10:00,1.0,,,,252,281,533,,,,,,,
100024661,2019-07-02 11:00,1.0,,,,203,202,405,,,,,,,
100024661,2019-07-02 12:00,1.0,,,,195,204,399,,,,,,,
100024661,2019-07-02 13:00,1.0,,,,193,265,458,,,,,,,
100024661,2019-07-02 14:00,1.0,,,,271,256,527,,,,,,,
100024661,2019-07-02 15:00,1.0,,,,376,263,639,,,,,,,
100024661,2019-07-02 16:00,1.0,,,,475,361,836,,,,,,,
100024661,2019-07-02 17:00,1.0,,,,701,469,1170,,,,,,,
100024661,2019-07-02 18:00,1.0,,,,851,720,1571,,,,,,,
100024661,2019-07-02 19:00,1.0,,,,522,508,1030,,,,,,,
100024661,2019-07-02 20:00,1.0,,,,333,297,630,,,,,,,
100024661,2019-07-02 21:00,1.0,,,,227,260,487,,,,,,,
100024661,2019-07-02 22:00,1.0,,,,178,162,340,,,,,,,
100024661,2019-07-02 23:00,1.0,,,,128,103,231,,,,,,,
100024661,2019-07-03 00:00,1.0,,,,73,52,125,,,,,,,
100024661,2019-07-03 01:00,1.0,,,,41,33,74,,,,,,,
100024661,2019-07-03 02:00,1.0,,,,17,11,28,,,,,,,
100024661,2019-07-03 03:00,1.0,,,,10,12,22,,,,,,,
100024661,2019-07-03 04:00,1.0,,,,11,10,21,,,,,,,
100024661,2019-07-03 05:00,1.0,,,,19,50,69,,,,,,,
100024661,2019-07-03 06:00,1.0,,,,67,148,215,,,,,,,
100024661,2019-07-03 07:00,1.0,,,,206,343,549,,,,,,,
100024661,2019-07-03 08:00,1.0,,,,542,831,1373,,,,,,,
100024661,2019-07-03 09:00,1.0,,,,563,809,1372,,,,,,,
100024661,2019-07-03 10:00,1.0,,,,230,305,535,,,,,,,
100024661,2019-07-03 11:00,1.0,,,,209,197,406,,,,,,,
100024661,2019-07-03 12:00,1.0,,,,228,206,434,,,,,,,
100024661,2019-07-03 13:00,1.0,,,,217,235,452,,,,,,,
100024661,2019-07-03 14:00,1.0,,,,283,249,532,,,,,,,
100024661,2019-07-03 15:00,1.0,,,,369,316,685,,,,,,,
100024661,2019-07-03 16:00,1.0,,,,506,372,878,,,,,,,
100024661,2019-07-03 17:00,1.0,,,,674,546,1220,,,,,,,
100024661,2019-07-03 18:00,1.0,,,,811,713,1524,,,,,,,
100024661,2019-07-03 19:00,1.0,,,,511,522,1033,,,,,,,
100024661,2019-07-03 20:00,1.0,,,,292,331,623,,,,,,,
100024661,2019-07-03 21:00,1.0,,,,213,245,458,,,,,,,
100024661,2019-07-03 22:00,1.0,,,,209,172,381,,,,,,,
100024661,2019-07-03 23:00,1.0,,,,144,107,251,,,,,,,
100024661,2019-07-04 00:00,1.0,,,,72,76,148,,,,,,,
100024661,2019-07-04 01:00,1.0,,,,42,43,85,,,,,,,
100024661,2019-07-04 02:00,1.0,,,,17,18,35,,,,,,,
100024661,2019-07-04 03:00,1.0,,,,12,11,23,,,,,,,
100024661,2019-07-04 04:00,1.0,,,,10,11,21,,,,,,,
100024661,2019-07-04 05:00,1.0,,,,23,47,70,,,,,,,
100024661,2019-07-04 06:00,1.0,,,,63,132,195,,,,,,,
100024661,2019-07-04 07:00,1.0,,,,178,313,491,,,,,,,
100024661,2019-07-04 08:00,1.0,,,,497,803,1300,,,,,,,
100024661,2019-07-04 09:00,1.0,,,,520,733,1253,,,,,,,
100024661,2019-07-04 10:00,1.0,,,,256,257,513,,,,,,,
100024661,2019-07-04 11:00,1.0,,,,202,222,424,,,,,,,
100024661,2019-07-04 12:00,1.0,,,,248,229,477,,,,,,,
100024661,2019-07-04 13:00,1.0,,,,244,262,506,,,,,,,
100024661,2019-07-04 14:00,1.0,,,,293,281,574,,,,,,,
100024661,2019-07-04 15:00,1.0,,,,389,330,719,,,,,,,
100024661,2019-07-04 16:00,1.0,,,,535,384,919,,,,,,,
100024661,2019-07-04 17:00,1.0,,,,657,476,1133,,,,,,,
100024661,2019-07-04 18:00,1.0,,,,734,718,1452,,,,,,,
100024661,2019-07-04 19:00,1.0,,,,490,507,997,,,,,,,
100024661,2019-07-04 20:00,1.0,,,,283,363,646,,,,,,,
100024661,2019-07-04 21:00,1.0,,,,232,244,476,,,,,,,
100024661,2019-07-04 22:00,1.0,,,,212,210,422,,,,,,,
100024661,2019-07-04 23:00,1.0,,,,171,158,329,,,,,,,
100024661,2019-07-05 00:00,1.0,,,,103,86,189,,,,,,,
100024661,2019-07-05 01:00,1.0,,,,49,52,101,,,,,,,
100024661,2019-07-05 02:00,1.0,,,,34,23,57,,,,,,,
100024661,2019-07-05 03:00,1.0,,,,21,8,29,,,,,,,
100024661,2019-07-05 04:00,1.0,,,,16,20,36,,,,,,,
100024661,2019-07-05 05:00,1.0,,,,18,39,57,,,,,,,
100024661,2019-07-05 06:00,1.0,,,,53,105,158,,,,,,,
100024661,2019-07-05 07:00,1.0,,,,154,242,396,,,,,,,
100024661,2019-07-05 08:00,1.0,,,,353,570,923,,,,,,,
100024661,2019-07-05 09:00,1.0,,,,419,604,1023,,,,,,,
100024661,2019-07-05 10:00,1.0,,,,213,250,463,,,,,,,
100024661,2019-07-05 11:00,1.0,,,,179,201,380,,,,,,,
100024661,2019-07-05 12:00,1.0,,,,221,176,397,,,,,,,
100024661,2019-07-05 13:00,1.0,,,,242,207,449,,,,,,,
100024661,2019-07-05 14:00,1.0,,,,305,268,573,,,,,,,
100024661,2019-07-05 15:00,1.0,,,,384,294,678,,,,,,,
100024661,2019-07-05 16:00,1.0,,,,409,330,739,,,,,,,
100024661,2019-07-05 17:00,1.0,,,,500,439,939,,,,,,,
100024661,2019-07-05 18:00,1.0,,,,536,470,1006,,,,,,,
100024661,2019-07-05 19:00,1.0,,,,332,350,682,,,,,,,
100024661,2019-07-05 20:00,1.0,,,,231,281,512,,,,,,,
100024661,2019-07-05 21:00,1.0,,,,165,167,332,,,,,,,
100024661,2019-07-05 22:00,1.0,,,,134,155,289,,,,,,,
100024661,2019-07-05 23:00,1.0,,,,143,133,276,,,,,,,
100024661,2019-07-06 00:00,1.0,,,,120,99,219,,,,,,,
100024661,2019-07-06 01:00,1.0,,,,78,79,157,,,,,,,
100024661,2019-07-06 02:00,1.0,,,,66,30,96,,,,,,,
100024661,2019-07-06 03:00,1.0,,,,39,37,76,,,,,,,
100024661,2019-07-06 04:00,1.0,,,,28,16,44,,,,,,,
100024661,2019-07-06 05:00,1.0,,,,35,16,51,,,,,,,
100024661,2019-07-06 06:00,1.0,,,,16,22,38,,,,,,,
100024661,2019-07-06 07:00,1.0,,,,27,15,42,,,,,,,
100024661,2019-07-06 08:00,1.0,,,,58,42,100,,,,,,,
100024661,2019-07-06 09:00,1.0,,,,114,88,202,,,,,,,
100024661,2019-07-06 10:00,1.0,,,,127,119,246,,,,,,,
100024661,2019-07-06 11:00,1.0,,,,148,146,294,,,,,,,
100024661,2019-07-06 12:00,1.0,,,,190,187,377,,,,,,,
100024661,2019-07-06 13:00,1.0,,,,200,193,393,,,,,,,
100024661,2019-07-06 14:00,1.0,,,,236,234,470,,,,,,,
100024661,2019-07-06 15:00,1.0,,,,214,286,500,,,,,,,
100024661,2019-07-06 16:00,1.0,,,,250,272,522,,,,,,,
100024661,2019-07-06 17:00,1.0,,,,202,268,470,,,,,,,
100024661,2019-07-06 18:00,1.0,,,,207,249,456,,,,,,,
100024661,2019-07-06 19:00,1.0,,,,108,168,276,,,,,,,
100024661,2019-07-06 20:00,1.0,,,,65,99,164,,,,,,,
100024661,2019-07-06 21:00,1.0,,,,54,64,118,,,,,,,
100024661,2019-07-06 22:00,1.0,,,,56,62,118,,,,,,,
100024661,2019-07-06 23:00,1.0,,,,60,57,117,,,,,,,
100024661,2019-07-07 00:00,1.0,,,,36,70,106,,,,,,,
100024661,2019-07-07 01:00,1.0,,,,38,40,78,,,,,,,
100024661,2019-07-07 02:00,1.0,,,,34,21,55,,,,,,,
100024661,2019-07-07 03:00,1.0,,,,26,13,39,,,,,,,
100024661,2019-07-07 04:00,1.0,,,,22,12,34,,,,,,,
100024661,2019-07-07 05:00,1.0,,,,13,10,23,,,,,,,
100024661,2019-07-07 06:00,1.0,,,,14,14,28,,,,,,,
100024661,2019-07-07 07:00,1.0,,,,20,10,30,,,,,,,
100024661,2019-07-07 08:00,1.0,,,,33,36,69,,,,,,,
100024661,2019-07-07 09:00,1.0,,,,72,60,132,,,,,,,
100024661,2019-07-07 10:00,1.0,,,,95,78,173,,,,,,,
100024661,2019-07-07 11:00,1.0,,,,81,109,190,,,,,,,
100024661,2019-07-07 12:00,1.0,,,,122,124,246,,,,,,,
100024661,2019-07-07 13:00,1.0,,,,170,148,318,,,,,,,
100024661,2019-07-07 14:00,1.0,,,,155,196,351,,,,,,,
100024661,2019-07-07 15:00,1.0,,,,165,194,359,,,,,,,
100024661,2019-07-07 16:00,1.0,,,,201,178,379,,,,,,,
100024661,2019-07-07 17:00,1.0,,,,195,199,394,,,,,,,
100024661,2019-07-07 18:00,1.0,,,,176,192,368,,,,,,,
100024661,2019-07-07 19:00,1.0,,,,131,191,322,,,,,,,
100024661,2019-07-07 20:00,1.0,,,,112,126,238,,,,,,,
100024661,2019-07-07 21:00,1.0,,,,94,102,196,,,,,,,
100024661,2019-07-07 22:00,1.0,,,,79,82,161,,,,,,,
100024661,2019-07-07 23:00,1.0,,,,54,67,121,,,,,,,
100024661,2019-07-08 00:00,1.0,,,,38,48,86,,,,,,,
100024661,2019-07-08 01:00,1.0,,,,12,22,34,,,,,,,
100024661,2019-07-08 02:00,1.0,,,,15,8,23,,,,,,,
100024661,2019-07-08 03:00,1.0,,,,7,8,15,,,,,,,
100024661,2019-07-08 04:00,1.0,,,,11,12,23,,,,,,,
100024661,2019-07-08 05:00,1.0,,,,16,33,49,,,,,,,
100024661,2019-07-08 06:00,1.0,,,,56,106,162,,,,,,,
100024661,2019-07-08 07:00,1.0,,,,145,302,447,,,,,,,
100024661,2019-07-08 08:00,1.0,,,,412,750,1162,,,,,,,
100024661,2019-07-08 09:00,1.0,,,,452,691,1143,,,,,,,
100024661,2019-07-08 10:00,1.0,,,,185,250,435,,,,,,,
100024661,2019-07-08 11:00,1.0,,,,157,159,316,,,,,,,
100024661,2019-07-08 12:00,1.0,,,,184,173,357,,,,,,,
100024661,2019-07-08 13:00,1.0,,,,174,171,345,,,,,,,
100024661,2019-07-08 14:00,1.0,,,,217,216,433,,,,,,,
100024661,2019-07-08 15:00,1.0,,,,319,269,588,,,,,,,
100024661,2019-07-08 16:00,1.0,,,,359,241,600,,,,,,,
100024661,2019-07-08 17:00,1.0,,,,554,373,927,,,,,,,
100024661,2019-07-08 18:00,1.0,,,,719,562,1281,,,,,,,
100024661,2019-07-08 19:00,1.0,,,,399,442,841,,,,,,,
100024661,2019-07-08 20:00,1.0,,,,234,259,493,,,,,,,
100024661,2019-07-08 21:00,1.0,,,,165,197,362,,,,,,,
100024661,2019-07-08 22:00,1.0,,,,116,115,231,,,,,,,
100024661,2019-07-08 23:00,1.0,,,,68,61,129,,,,,,,
100024661,2019-07-09 00:00,1.0,,,,24,42,66,,,,,,,
100024661,2019-07-09 01:00,1.0,,,,16,15,31,,,,,,,
100024661,2019-07-09 02:00,1.0,,,,5,13,18,,,,,,,
100024661,2019-07-09 03:00,1.0,,,,11,8,19,,,,,,,
100024661,2019-07-09 04:00,1.0,,,,10,7,17,,,,,,,
100024661,2019-07-09 05:00,1.0,,,,19,40,59,,,,,,,
100024661,2019-07-09 06:00,1.0,,,,62,104,166,,,,,,,
100024661,2019-07-09 07:00,1.0,,,,180,338,518,,,,,,,
100024661,2019-07-09 08:00,1.0,,,,472,796,1268,,,,,,,
100024661,2019-07-09 09:00,1.0,,,,519,721,1240,,,,,,,
100024661,2019-07-09 10:00,1.0,,,,210,298,508,,,,,,,
100024661,2019-07-09 11:00,1.0,,,,200,198,398,,,,,,,
100024661,2019-07-09 12:00,1.0,,,,178,185,363,,,,,,,
100024661,2019-07-09 13:00,1.0,,,,214,191,405,,,,,,,
100024661,2019-07-09 14:00,1.0,,,,262,252,514,,,,,,,
100024661,2019-07-09 15:00,1.0,,,,335,283,618,,,,,,,
100024661,2019-07-09 16:00,1.0,,,,448,360,808,,,,,,,
100024661,2019-07-09 17:00,1.0,,,,641,485,1126,,,,,,,
100024661,2019-07-09 18:00,1.0,,,,805,652,1457,,,,,,,
100024661,2019-07-09 19:00,1.0,,,,472,442,914,,,,,,,
100024661,2019-07-09 20:00,1.0,,,,300,286,586,,,,,,,
100024661,2019-07-09 21:00,1.0,,,,189,226,415,,,,,,,
100024661,2019-07-09 22:00,1.0,,,,152,154,306,,,,,,,
100024661,2019-07-09 23:00,1.0,,,,100,108,208,,,,,,,
100024661,2019-07-10 00:00,1.0,,,,64,59,123,,,,,,,
100024661,2019-07-10 01:00,1.0,,,,32,31,63,,,,,,,
100024661,2019-07-10 02:00,1.0,,,,24,22,46,,,,,,,
100024661,2019-07-10 03:00,1.0,,,,17,8,25,,,,,,,
100024661,2019-07-10 04:00,1.0,,,,9,12,21,,,,,,,
100024661,2019-07-10 05:00,1.0,,,,15,41,56,,,,,,,
100024661,2019-07-10 06:00,1.0,,,,60,106,166,,,,,,,
100024661,2019-07-10 07:00,1.0,,,,170,320,490,,,,,,,
100024661,2019-07-10 08:00,1.0,,,,441,754,1195,,,,,,,
100024661,2019-07-10 09:00,1.0,,,,535,701,1236,,,,,,,
100024661,2019-07-10 10:00,1.0,,,,237,268,505,,,,,,,
100024661,2019-07-10 11:00,1.0,,,,179,168,347,,,,,,,
100024661,2019-07-10 12:00,1.0,,,,233,197,430,,,,,,,
100024661,2019-07-10 13:00,1.0,,,,285,219,504,,,,,,,
100024661,2019-07-10 14:00,1.0,,,,255,244,499,,,,,,,
100024661,2019-07-10 15:00,1.0,,,,329,306,635,,,,,,,
100024661,2019-07-10 16:00,1.0,,,,460,326,786,,,,,,,
100024661,2019-07-10 17:00,1.0,,,,630,465,1095,,,,,,,
100024661,2019-07-10 18:00,1.0,,,,806,688,1494,,,,,,,
100024661,2019-07-10 19:00,1.0,,,,529,508,1037,,,,,,,
100024661,2019-07-10 20:00,1.0,,,,283,321,604,,,,,,,
100024661,2019-07-10 21:00,1.0,,,,173,228,401,,,,,,,
100024661,2019-07-10 22:00,1.0,,,,175,163,338,,,,,,,
100024661,2019-07-10 23:00,1.0,,,,142,147,289,,,,,,,
100024661,2019-07-11 00:00,1.0,,,,75,59,134,,,,,,,
100024661,2019-07-11 01:00,1.0,,,,40,47,87,,,,,,,
100024661,2019-07-11 02:00,1.0,,,,18,18,36,,,,,,,
100024661,2019-07-11 03:00,1.0,,,,9,9,18,,,,,,,
100024661,2019-07-11 04:00,1.0,,,,10,19,29,,,,,,,
100024661,2019-07-11 05:00,1.0,,,,17,47,64,,,,,,,
100024661,2019-07-11 06:00,1.0,,,,76,113,189,,,,,,,
100024661,2019-07-11 07:00,1.0,,,,161,322,483,,,,,,,
100024661,2019-07-11 08:00,1.0,,,,445,761,1206,,,,,,,
100024661,2019-07-11 09:00,1.0,,,,504,736,1240,,,,,,,
100024661,2019-07-11 10:00,1.0,,,,249,309,558,,,,,,,
100024661,2019-07-11 11:00,1.0,,,,219,207,426,,,,,,,
100024661,2019-07-11 12:00,1.0,,,,237,234,471,,,,,,,
100024661,2019-07-11 13:00,1.0,,,,250,245,495,,,,,,,
100024661,2019-07-11 14:00,1.0,,,,287,276,563,,,,,,,
100024661,2019-07-11 15:00,1.0,,,,370,288,658,,,,,,,
100024661,2019-07-11 16:00,1.0,,,,444,319,763,,,,,,,
100024661,2019-07-11 17:00,1.0,,,,673,444,1117,,,,,,,
100024661,2019-07-11 18:00,1.0,,,,798,621,1419,,,,,,,
100024661,2019-07-11 19:00,1.0,,,,454,458,912,,,,,,,
100024661,2019-07-11 20:00,1.0,,,,289,306,595,,,,,,,
100024661,2019-07-11 21:00,1.0,,,,217,258,475,,,,,,,
100024661,2019-07-11 22:00,1.0,,,,207,193,400,,,,,,,
100024661,2019-07-11 23:00,1.0,,,,130,133,263,,,,,,,
100024661,2019-07-12 00:00,1.0,,,,77,78,155,,,,,,,
100024661,2019-07-12 01:00,1.0,,,,47,52,99,,,,,,,
100024661,2019-07-12 02:00,1.0,,,,23,23,46,,,,,,,
100024661,2019-07-12 03:00,1.0,,,,21,15,36,,,,,,,
100024661,2019-07-12 04:00,1.0,,,,17,15,32,,,,,,,
100024661,2019-07-12 05:00,1.0,,,,14,33,47,,,,,,,
100024661,2019-07-12 06:00,1.0,,,,29,62,91,,,,,,,
100024661,2019-07-12 07:00,1.0,,,,87,141,228,,,,,,,
100024661,2019-07-12 08:00,1.0,,,,152,309,461,,,,,,,
100024661,2019-07-12 09:00,1.0,,,,238,290,528,,,,,,,
100024661,2019-07-12 10:00,1.0,,,,131,112,243,,,,,,,
100024661,2019-07-12 11:00,1.0,,,,132,119,251,,,,,,,
100024661,2019-07-12 12:00,1.0,,,,147,134,281,,,,,,,
100024661,2019-07-12 13:00,1.0,,,,176,164,340,,,,,,,
100024661,2019-07-12 14:00,1.0,,,,182,163,345,,,,,,,
100024661,2019-07-12 15:00,1.0,,,,254,164,418,,,,,,,
100024661,2019-07-12 16:00,1.0,,,,288,224,512,,,,,,,
100024661,2019-07-12 17:00,1.0,,,,302,282,584,,,,,,,
100024661,2019-07-12 18:00,1.0,,,,342,363,705,,,,,,,
100024661,2019-07-12 19:00,1.0,,,,283,330,613,,,,,,,
100024661,2019-07-12 20:00,1.0,,,,185,210,395,,,,,,,
100024661,2019-07-12 21:00,1.0,,,,131,160,291,,,,,,,
100024661,2019-07-12 22:00,1.0,,,,105,170,275,,,,,,,
100024661,2019-07-12 23:00,1.0,,,,102,110,212,,,,,,,
100024661,2019-07-13 00:00,1.0,,,,90,75,165,,,,,,,
100024661,2019-07-13 01:00,1.0,,,,77,74,151,,,,,,,
100024661,2019-07-13 02:00,1.0,,,,53,35,88,,,,,,,
100024661,2019-07-13 03:00,1.0,,,,46,37,83,,,,,,,
100024661,2019-07-13 04:00,1.0,,,,29,18,47,,,,,,,
100024661,2019-07-13 05:00,1.0,,,,22,23,45,,,,,,,
100024661,2019-07-13 06:00,1.0,,,,21,20,41,,,,,,,
100024661,2019-07-13 07:00,1.0,,,,28,22,50,,,,,,,
100024661,2019-07-13 08:00,1.0,,,,54,38,92,,,,,,,
100024661,2019-07-13 09:00,1.0,,,,113,83,196,,,,,,,
100024661,2019-07-13 10:00,1.0,,,,133,104,237,,,,,,,
100024661,2019-07-13 11:00,1.0,,,,153,157,310,,,,,,,
100024661,2019-07-13 12:00,1.0,,,,184,204,388,,,,,,,
100024661,2019-07-13 13:00,1.0,,,,256,240,496,,,,,,,
100024661,2019-07-13 14:00,1.0,,,,198,262,460,,,,,,,
100024661,2019-07-13 15:00,1.0,,,,145,196,341,,,,,,,
100024661,2019-07-13 16:00,1.0,,,,181,209,390,,,,,,,
100024661,2019-07-13 17:00,1.0,,,,228,242,470,,,,,,,
100024661,2019-07-13 18:00,1.0,,,,248,233,481,,,,,,,
100024661,2019-07-13 19:00,1.0,,,,198,224,422,,,,,,,
100024661,2019-07-13 20:00,1.0,,,,135,203,338,,,,,,,
100024661,2019-07-13 21:00,1.0,,,,101,149,250,,,,,,,
100024661,2019-07-13 22:00,1.0,,,,103,84,187,,,,,,,
100024661,2019-07-13 23:00,1.0,,,,96,82,178,,,,,,,
100024661,2019-07-14 00:00,1.0,,,,76,69,145,,,,,,,
100024661,2019-07-14 01:00,1.0,,,,58,61,119,,,,,,,
100024661,2019-07-14 02:00,1.0,,,,34,37,71,,,,,,,
100024661,2019-07-14 03:00,1.0,,,,44,24,68,,,,,,,
100024661,2019-07-14 04:00,1.0,,,,21,21,42,,,,,,,
100024661,2019-07-14 05:00,1.0,,,,17,16,33,,,,,,,
100024661,2019-07-14 06:00,1.0,,,,18,13,31,,,,,,,
100024661,2019-07-14 07:00,1.0,,,,22,15,37,,,,,,,
100024661,2019-07-14 08:00,1.0,,,,38,32,70,,,,,,,
100024661,2019-07-14 09:00,1.0,,,,43,56,99,,,,,,,
100024661,2019-07-14 10:00,1.0,,,,69,76,145,,,,,,,
100024661,2019-07-14 11:00,1.0,,,,84,91,175,,,,,,,
100024661,2019-07-14 12:00,1.0,,,,136,119,255,,,,,,,
100024661,2019-07-14 13:00,1.0,,,,146,122,268,,,,,,,
100024661,2019-07-14 14:00,1.0,,,,166,153,319,,,,,,,
100024661,2019-07-14 15:00,1.0,,,,179,162,341,,,,,,,
100024661,2019-07-14 16:00,1.0,,,,169,198,367,,,,,,,
100024661,2019-07-14 17:00,1.0,,,,186,165,351,,,,,,,
100024661,2019-07-14 18:00,1.0,,,,184,193,377,,,,,,,
100024661,2019-07-14 19:00,1.0,,,,146,174,320,,,,,,,
100024661,2019-07-14 20:00,1.0,,,,127,162,289,,,,,,,
100024661,2019-07-14 21:00,1.0,,,,105,121,226,,,,,,,
100024661,2019-07-14 22:00,1.0,,,,89,93,182,,,,,,,
100024661,2019-07-14 23:00,1.0,,,,40,62,102,,,,,,,
100024661,2019-07-15 00:00,1.0,,,,34,39,73,,,,,,,
100024661,2019-07-15 01:00,1.0,,,,26,27,53,,,,,,,
100024661,2019-07-15 02:00,1.0,,,,11,13,24,,,,,,,
100024661,2019-07-15 03:00,1.0,,,,10,10,20,,,,,,,
100024661,2019-07-15 04:00,1.0,,,,8,12,20,,,,,,,
100024661,2019-07-15 05:00,1.0,,,,33,35,68,,,,,,,
100024661,2019-07-15 06:00,1.0,,,,56,128,184,,,,,,,
100024661,2019-07-15 07:00,1.0,,,,137,289,426,,,,,,,
100024661,2019-07-15 08:00,1.0,,,,412,681,1093,,,,,,,
100024661,2019-07-15 09:00,1.0,,,,478,660,1138,,,,,,,
100024661,2019-07-15 10:00,1.0,,,,214,228,442,,,,,,,
100024661,2019-07-15 11:00,1.0,,,,143,149,292,,,,,,,
100024661,2019-07-15 12:00,1.0,,,,152,163,315,,,,,,,
100024661,2019-07-15 13:00,1.0,,,,187,179,366,,,,,,,
100024661,2019-07-15 14:00,1.0,,,,209,187,396,,,,,,,
100024661,2019-07-15 15:00,1.0,,,,342,231,573,,,,,,,
100024661,2019-07-15 16:00,1.0,,,,450,259,709,,,,,,,
100024661,2019-07-15 17:00,1.0,,,,606,422,1028,,,,,,,
100024661,2019-07-15 18:00,1.0,,,,706,599,1305,,,,,,,
100024661,2019-07-15 19:00,1.0,,,,430,441,871,,,,,,,
100024661,2019-07-15 20:00,1.0,,,,254,263,517,,,,,,,
100024661,2019-07-15 21:00,1.0,,,,146,194,340,,,,,,,
100024661,2019-07-15 22:00,1.0,,,,104,125,229,,,,,,,
100024661,2019-07-15 23:00,1.0,,,,70,89,159,,,,,,,
100024661,2019-07-16 00:00,1.0,,,,38,63,101,,,,,,,
100024661,2019-07-16 01:00,1.0,,,,28,21,49,,,,,,,
100024661,2019-07-16 02:00,1.0,,,,14,20,34,,,,,,,
100024661,2019-07-16 03:00,1.0,,,,11,8,19,,,,,,,
100024661,2019-07-16 04:00,1.0,,,,9,11,20,,,,,,,
100024661,2019-07-16 05:00,1.0,,,,31,36,67,,,,,,,
100024661,2019-07-16 06:00,1.0,,,,52,131,183,,,,,,,
100024661,2019-07-16 07:00,1.0,,,,129,325,454,,,,,,,
100024661,2019-07-16 08:00,1.0,,,,444,719,1163,,,,,,,
100024661,2019-07-16 09:00,1.0,,,,517,677,1194,,,,,,,
100024661,2019-07-16 10:00,1.0,,,,239,258,497,,,,,,,
100024661,2019-07-16 11:00,1.0,,,,208,174,382,,,,,,,
100024661,2019-07-16 12:00,1.0,,,,199,173,372,,,,,,,
100024661,2019-07-16 13:00,1.0,,,,198,194,392,,,,,,,
100024661,2019-07-16 14:00,1.0,,,,238,232,470,,,,,,,
100024661,2019-07-16 15:00,1.0,,,,312,252,564,,,,,,,
100024661,2019-07-16 16:00,1.0,,,,444,313,757,,,,,,,
100024661,2019-07-16 17:00,1.0,,,,656,419,1075,,,,,,,
100024661,2019-07-16 18:00,1.0,,,,770,693,1463,,,,,,,
100024661,2019-07-16 19:00,1.0,,,,471,497,968,,,,,,,
100024661,2019-07-16 20:00,1.0,,,,259,276,535,,,,,,,
100024661,2019-07-16 21:00,1.0,,,,212,202,414,,,,,,,
100024661,2019-07-16 22:00,1.0,,,,161,159,320,,,,,,,
100024661,2019-07-16 23:00,1.0,,,,129,115,244,,,,,,,
100024661,2019-07-17 00:00,1.0,,,,72,65,137,,,,,,,
100024661,2019-07-17 01:00,1.0,,,,23,31,54,,,,,,,
100024661,2019-07-17 02:00,1.0,,,,17,15,32,,,,,,,
100024661,2019-07-17 03:00,1.0,,,,17,15,32,,,,,,,
100024661,2019-07-17 04:00,1.0,,,,6,13,19,,,,,,,
100024661,2019-07-17 05:00,1.0,,,,14,39,53,,,,,,,
100024661,2019-07-17 06:00,1.0,,,,63,139,202,,,,,,,
100024661,2019-07-17 07:00,1.0,,,,165,349,514,,,,,,,
100024661,2019-07-17 08:00,1.0,,,,459,728,1187,,,,,,,
100024661,2019-07-17 09:00,1.0,,,,543,684,1227,,,,,,,
100024661,2019-07-17 10:00,1.0,,,,264,288,552,,,,,,,
100024661,2019-07-17 11:00,1.0,,,,210,171,381,,,,,,,
100024661,2019-07-17 12:00,1.0,,,,220,223,443,,,,,,,
100024661,2019-07-17 13:00,1.0,,,,244,226,470,,,,,,,
100024661,2019-07-17 14:00,1.0,,,,273,266,539,,,,,,,
100024661,2019-07-17 15:00,1.0,,,,364,282,646,,,,,,,
100024661,2019-07-17 16:00,1.0,,,,476,316,792,,,,,,,
100024661,2019-07-17 17:00,1.0,,,,703,515,1218,,,,,,,
100024661,2019-07-17 18:00,1.0,,,,804,691,1495,,,,,,,
100024661,2019-07-17 19:00,1.0,,,,571,521,1092,,,,,,,
100024661,2019-07-17 20:00,1.0,,,,310,363,673,,,,,,,
100024661,2019-07-17 21:00,1.0,,,,251,234,485,,,,,,,
100024661,2019-07-17 22:00,1.0,,,,232,183,415,,,,,,,
100024661,2019-07-17 23:00,1.0,,,,164,150,314,,,,,,,
100024661,2019-07-18 00:00,1.0,,,,89,108,197,,,,,,,
100024661,2019-07-18 01:00,1.0,,,,43,49,92,,,,,,,
100024661,2019-07-18 02:00,1.0,,,,28,28,56,,,,,,,
100024661,2019-07-18 03:00,1.0,,,,14,12,26,,,,,,,
100024661,2019-07-18 04:00,1.0,,,,8,12,20,,,,,,,
100024661,2019-07-18 05:00,1.0,,,,26,48,74,,,,,,,
100024661,2019-07-18 06:00,1.0,,,,63,130,193,,,,,,,
100024661,2019-07-18 07:00,1.0,,,,169,311,480,,,,,,,
100024661,2019-07-18 08:00,1.0,,,,432,779,1211,,,,,,,
100024661,2019-07-18 09:00,1.0,,,,552,762,1314,,,,,,,
100024661,2019-07-18 10:00,1.0,,,,277,274,551,,,,,,,
100024661,2019-07-18 11:00,1.0,,,,223,194,417,,,,,,,
100024661,2019-07-18 12:00,1.0,,,,213,204,417,,,,,,,
100024661,2019-07-18 13:00,1.0,,,,249,236,485,,,,,,,
100024661,2019-07-18 14:00,1.0,,,,292,300,592,,,,,,,
100024661,2019-07-18 15:00,1.0,,,,384,290,674,,,,,,,
100024661,2019-07-18 16:00,1.0,,,,489,344,833,,,,,,,
100024661,2019-07-18 17:00,1.0,,,,656,471,1127,,,,,,,
100024661,2019-07-18 18:00,1.0,,,,758,670,1428,,,,,,,
100024661,2019-07-18 19:00,1.0,,,,487,471,958,,,,,,,
100024661,2019-07-18 20:00,1.0,,,,304,301,605,,,,,,,
100024661,2019-07-18 21:00,1.0,,,,232,259,491,,,,,,,
100024661,2019-07-18 22:00,1.0,,,,186,193,379,,,,,,,
100024661,2019-07-18 23:00,1.0,,,,143,161,304,,,,,,,
100024661,2019-07-19 00:00,1.0,,,,98,93,191,,,,,,,
100024661,2019-07-19 01:00,1.0,,,,47,58,105,,,,,,,
100024661,2019-07-19 02:00,1.0,,,,28,30,58,,,,,,,
100024661,2019-07-19 03:00,1.0,,,,16,18,34,,,,,,,
100024661,2019-07-19 04:00,1.0,,,,20,20,40,,,,,,,
100024661,2019-07-19 05:00,1.0,,,,18,41,59,,,,,,,
100024661,2019-07-19 06:00,1.0,,,,55,130,185,,,,,,,
100024661,2019-07-19 07:00,1.0,,,,146,234,380,,,,,,,
100024661,2019-07-19 08:00,1.0,,,,360,572,932,,,,,,,
100024661,2019-07-19 09:00,1.0,,,,424,570,994,,,,,,,
100024661,2019-07-19 10:00,1.0,,,,219,252,471,,,,,,,
100024661,2019-07-19 11:00,1.0,,,,193,177,370,,,,,,,
100024661,2019-07-19 12:00,1.0,,,,218,239,457,,,,,,,
100024661,2019-07-19 13:00,1.0,,,,303,245,548,,,,,,,